Location: Paris
(48.6709°N, 2.3750°E)
Time: 06:32:03
(UTC+02:00)

YUBILEINY - Pass Details

Date: 02 July 2022
Orbit: 1478 x 1509 km, 82.5° (Epoch: 17 August)

Event Time Altitude Azimuth Distance (km) Brightness Sun altitude
Rises 03:06:51 0° 351° (N) 4,657 ? -16.5°
Reaches altitude 10° 03:12:27 10° 20° (NNE) 3,666 ? -16.2°
Maximum altitude 03:15:50 12° 43° (NE) 3,467 ? -16.0°
Drops below altitude 10° 03:19:10 10° 66° (ENE) 3,652 ? -15.8°
Sets 03:24:41 0° 94° (E) 4,620 ? -15.5°
